Вернуться в каталог

K-HERO

АктивенЛюбительское радиоSSO
NORAD 66660·PAYLOAD·🇰🇷 South Korea

Запущен Nov 26, 2025 с Naro Space Center

Loading…

Ближайшие Пролёты (ближайшие 24 часа)

TLE

СвежийSource: AMSAT

Эпоха: Sep 14, 2026, 06:20 UTC

1 66660U 25274L   26257.26408343  .00001347  00000-0  13071-3 0  9996
2 66660  97.7486 185.5223 0015451  82.6388 277.6587 14.94234975 43539

Отслеживайте K-HERO в реальном времени с AllMySat

Download on the App Store